QPF
0.00 0.00 0.00 0.00 0.01 0.02 0.01 0.01 0.02 0.03 0.03 0.03 0.03 0.02 0.02 0.02 0.01 0.00 0.00 0.00 0.00 0.00 0.00 0.00 0.00 0.00 0.00 0.00 0.00 0.00 0.00 0.00 0.00 0.00 0.00 0.00 0.00 0.00 0.00 0.00 0.00 0.00 0.00
0.00 0.00 0.01 0.01 0.01 0.01 0.02 0.02 0.02 0.02 0.03 0.03 0.03 0.02 0.01 0.01 0.02 0.02 0.02 0.02 0.01 0.01 0.00 0.01 0.00 0.00 0.00 0.00 0.00 0.00 0.00 0.00 0.00 0.00 0.00 0.00 0.00 0.00 0.00 0.00 0.00 0.00 0.00
0.00 0.01 0.02 0.02 0.02 0.01 0.01 0.01 0.00 0.01 0.03 0.05 0.03 0.01 0.01 0.01 0.02 0.03 0.03 0.03 0.02 0.01 0.01 0.01 0.01 0.01 0.00 0.00 0.00 0.00 0.00 0.00 0.00 0.00 0.00 0.00 0.00 0.00 0.00 0.00 0.00 0.00 0.00
0.00 0.01 0.01 0.01 0.00 0.00 0.00 0.02 0.02 0.03 0.05 0.05 0.03 0.01 0.01 0.00 0.01 0.02 0.01 0.01 0.00 0.00 0.00 0.01 0.01 0.01 0.01 0.01 0.00 0.00 0.00 0.00 0.00 0.00 0.00 0.00 0.00 0.00 0.00 0.00 0.00 0.00 0.00
0.03 0.04 0.03 0.01 0.00 0.00 0.00 0.00 0.01 0.01 0.01 0.02 0.02 0.01 0.00 0.00 0.00 0.00 0.00 0.00 0.00 0.00 0.00 0.00 0.00 0.00 0.00 0.00 0.00 0.00 0.00 0.00 0.00 0.00 0.00 0.00 0.00 0.00 0.00 0.00 0.00 0.00 0.00
0.03 0.03 0.01 0.01 0.00 0.00 0.00 0.00 0.00 0.00 0.00 0.00 0.00 0.00 0.00 0.00 0.00 0.00 0.00 0.00 0.00 0.00 0.00 0.00 0.00 0.00 0.00 0.00 0.00 0.00 0.00 0.00 0.00 0.00 0.00 0.00 0.00 0.00 0.00 0.00 0.00 0.00 0.00
0.00 0.00 0.00 0.00 0.00 0.00 0.00 0.00 0.00 0.00 0.00 0.00 0.00 0.00 0.00 0.00 0.00 0.00 0.00 0.00 0.00 0.00 0.00 0.00 0.00 0.00 0.00 0.00 0.00 0.00 0.00 0.00 0.00 0.00 0.00 0.00 0.00 0.00 0.00 0.00 0.00 0.00 0.00
0.00 0.00 0.00 0.00 0.00 0.00 0.00 0.00 0.00 0.00 0.00 0.00 0.00 0.00 0.00 0.00 0.00 0.00 0.00 0.00 0.00 0.00 0.00 0.00 0.00 0.00 0.00 0.00 0.00 0.00 0.00 0.00 0.00 0.00 0.00 0.00 0.00 0.00 0.00 0.00 0.00 0.00 0.00
0.00 0.00 0.00 0.00 0.00 0.00 0.00 0.00 0.00 0.00 0.00 0.00 0.00 0.00 0.00 0.00 0.00 0.00 0.00 0.00 0.00 0.00 0.00 0.00 0.00 0.00 0.00 0.00 0.00 0.00 0.00 0.00 0.00 0.00 0.00 0.00 0.00 0.00 0.00 0.00 0.00 0.00 0.00
0.00 0.00 0.00 0.00 0.00 0.00 0.00 0.00 0.00 0.00 0.00 0.00 0.00 0.00 0.00 0.00 0.00 0.00 0.00 0.00 0.00 0.00 0.00 0.00 0.00 0.00 0.00 0.00 0.00 0.00 0.00 0.00 0.00 0.00 0.00 0.00 0.00 0.00 0.00 0.00 0.00 0.00 0.00
0.00 0.00 0.00 0.00 0.00 0.00 0.00 0.00 0.00 0.00 0.00 0.00 0.00 0.00 0.00 0.00 0.00 0.00 0.00 0.00 0.00 0.00 0.00 0.00 0.00 0.00 0.00 0.00 0.00 0.00 0.00 0.00 0.00 0.00 0.00 0.00 0.00 0.00 0.00 0.00 0.00 0.00 0.00
0.00 0.00 0.00 0.00 0.00 0.00 0.00 0.00 0.00 0.00 0.00 0.00 0.00 0.00 0.00 0.00 0.00 0.00 0.00 0.00 0.00 0.00 0.00 0.00 0.00 0.00 0.00 0.00 0.00 0.00 0.00 0.00 0.00 0.00 0.00 0.00 0.00 0.00 0.00 0.00 0.00 0.00 0.00
0.00 0.00 0.00 0.00 0.00 0.00 0.00 0.00 0.00 0.00 0.00 0.00 0.00 0.00 0.00 0.00 0.00 0.00 0.00 0.00 0.00 0.00 0.00 0.00 0.00 0.00 0.00 0.00 0.00 0.00 0.00 0.00 0.00 0.00 0.00 0.00 0.00 0.00 0.00 0.00 0.00 0.00 0.00
0.00 0.00 0.00 0.00 0.00 0.00 0.00 0.00 0.00 0.00 0.00 0.00 0.00 0.00 0.00 0.00 0.00 0.00 0.00 0.00 0.00 0.00 0.00 0.00 0.00 0.00 0.00 0.00 0.00 0.00 0.00 0.00 0.00 0.00 0.00 0.00 0.00 0.00 0.00 0.00 0.00 0.00 0.00
0.00 0.00 0.00 0.00 0.00 0.00 0.00 0.00 0.00 0.00 0.00 0.00 0.00 0.00 0.00 0.00 0.00 0.00 0.00 0.00 0.00 0.00 0.00 0.00 0.00 0.00 0.00 0.00 0.00 0.00 0.00 0.00 0.00 0.00 0.00 0.00 0.00 0.00 0.00 0.00 0.00 0.00 0.00
0.00 0.00 0.00 0.00 0.00 0.00 0.00 0.00 0.00 0.00 0.00 0.00 0.00 0.00 0.00 0.00 0.00 0.00 0.00 0.00 0.00 0.00 0.00 0.00 0.00 0.00 0.00 0.00 0.00 0.00 0.00 0.00 0.00 0.00 0.00 0.00 0.00 0.00 0.00 0.00 0.00 0.00 0.00
0.00 0.00 0.00 0.00 0.00 0.00 0.00 0.00 0.00 0.00 0.00 0.00 0.00 0.00 0.00 0.00 0.00 0.00 0.00 0.00 0.00 0.00 0.00 0.00 0.00 0.00 0.00 0.00 0.00 0.00 0.00 0.00 0.00 0.00 0.00 0.00 0.00 0.00 0.00 0.00 0.00 0.00 0.00
0.00 0.00 0.00 0.00 0.00 0.00 0.00 0.00 0.00 0.00 0.00 0.00 0.00 0.00 0.00 0.00 0.00 0.00 0.00 0.00 0.00 0.00 0.00 0.00 0.00 0.00 0.00 0.00 0.00 0.00 0.00 0.00 0.00 0.00 0.00 0.00 0.00 0.00 0.00 0.00 0.00 0.00 0.00
0.00 0.00 0.00 0.00 0.00 0.00 0.00 0.00 0.00 0.00 0.00 0.00 0.00 0.00 0.00 0.00 0.00 0.00 0.00 0.00 0.00 0.00 0.00 0.00 0.00 0.00 0.00 0.00 0.00 0.00 0.00 0.00 0.00 0.00 0.00 0.00 0.00 0.00 0.00 0.00 0.00 0.00 0.00
0.00 0.00 0.00 0.00 0.00 0.00 0.00 0.00 0.00 0.00 0.00 0.00 0.00 0.00 0.00 0.00 0.00 0.00 0.00 0.00 0.00 0.00 0.00 0.00 0.00 0.00 0.00 0.00 0.00 0.00 0.00 0.00 0.00 0.00 0.00 0.00 0.00 0.00 0.00 0.00 0.00 0.00 0.00
0.00 0.00 0.00 0.00 0.00 0.00 0.00 0.00 0.00 0.00 0.00 0.00 0.00 0.00 0.00 0.00 0.00 0.00 0.00 0.00 0.00 0.00 0.00 0.00 0.00 0.00 0.00 0.00 0.00 0.00 0.00 0.00 0.00 0.00 0.00 0.00 0.00 0.00 0.00 0.00 0.00 0.00 0.00
0.00 0.00 0.00 0.00 0.00 0.00 0.00 0.00 0.00 0.00 0.00 0.00 0.00 0.00 0.00 0.00 0.00 0.00 0.00 0.00 0.00 0.00 0.00 0.00 0.00 0.00 0.00 0.00 0.00 0.00 0.00 0.00 0.00 0.00 0.00 0.00 0.00 0.00 0.00 0.00 0.00 0.00 0.00
0.00 0.00 0.00 0.00 0.00 0.00 0.00 0.00 0.00 0.00 0.00 0.00 0.00 0.00 0.00 0.00 0.00 0.00 0.00 0.00 0.00 0.00 0.00 0.00 0.00 0.00 0.00 0.00 0.00 0.00 0.00 0.00 0.00 0.00 0.00 0.00 0.00 0.00 0.00 0.00 0.00 0.00 0.00
0.00 0.00 0.00 0.00 0.00 0.00 0.00 0.00 0.00 0.00 0.00 0.00 0.00 0.00 0.00 0.00 0.00 0.00 0.00 0.00 0.00 0.00 0.00 0.00 0.00 0.00 0.00 0.00 0.00 0.00 0.00 0.00 0.00 0.00 0.00 0.00 0.00 0.00 0.00 0.00 0.00 0.00 0.00
0.00 0.00 0.00 0.00 0.00 0.00 0.00 0.00 0.00 0.00 0.00 0.00 0.00 0.00 0.00 0.00 0.00 0.00 0.00 0.00 0.00 0.00 0.00 0.00 0.00 0.00 0.00 0.00 0.00 0.00 0.00 0.00 0.00 0.00 0.00 0.00 0.00 0.00 0.00 0.00 0.00 0.00 0.00
0.00 0.00 0.00 0.00 0.00 0.00 0.00 0.00 0.00 0.00 0.00 0.00 0.00 0.00 0.00 0.00 0.00 0.00 0.00 0.00 0.00 0.00 0.00 0.00 0.00 0.00 0.00 0.00 0.00 0.00 0.00 0.00 0.00 0.00 0.00 0.00 0.00 0.00 0.00 0.00 0.00 0.00 0.00
MSLP
1016.07 1014.83 1013.77 1013.42 1013.57 1013.97 1014.35 1014.77 1014.92 1015.27 1015.32 1015.45 1015.63 1015.88 1016.11 1016.15 1016.37 1016.72 1016.79 1016.99 1017.29 1017.34 1017.60 1017.81 1017.84 1017.99 1018.12 1018.34 1018.40 1018.62 1018.75 1018.85 1018.17 1017.82 1017.83 1018.12 1018.67 1018.70 1018.92 1019.39 1019.54 1019.68 1020.00
1016.25 1014.78 1013.36 1013.60 1013.77 1013.89 1014.28 1014.72 1014.86 1014.83 1015.01 1015.07 1015.01 1015.41 1015.62 1015.67 1015.61 1015.75 1015.81 1016.04 1015.97 1016.28 1016.28 1016.40 1016.41 1016.69 1016.54 1016.69 1016.95 1017.05 1017.15 1017.10 1017.03 1016.46 1016.44 1016.87 1017.15 1017.13 1017.15 1017.92 1018.24 1018.75 1019.27
1017.07 1016.06 1015.12 1014.65 1015.09 1015.36 1015.53 1015.78 1015.81 1015.54 1015.49 1015.39 1015.43 1015.24 1015.34 1015.50 1015.51 1015.57 1015.63 1015.45 1015.43 1015.29 1015.24 1015.08 1014.70 1015.12 1015.13 1015.30 1015.20 1014.74 1015.28 1015.45 1015.53 1015.26 1014.88 1015.22 1015.87 1016.32 1017.09 1017.71 1018.20 1018.78 1018.85
1018.19 1017.29 1016.53 1016.29 1016.07 1016.37 1016.59 1016.89 1016.65 1016.62 1016.51 1016.46 1016.88 1016.30 1016.89 1017.03 1017.02 1017.04 1016.78 1016.30 1015.96 1015.70 1015.45 1015.28 1014.68 1014.44 1014.30 1014.33 1014.31 1014.18 1014.01 1014.24 1014.34 1014.16 1014.02 1014.46 1015.38 1016.22 1016.50 1017.34 1018.19 1018.33 1018.95
1019.41 1018.42 1018.18 1017.78 1017.44 1017.65 1017.82 1018.06 1018.14 1017.86 1017.63 1017.62 1017.53 1018.21 1017.43 1017.73 1018.26 1018.00 1017.45 1017.13 1016.88 1016.17 1016.12 1015.74 1015.85 1015.33 1015.51 1014.91 1014.13 1014.17 1013.98 1013.95 1014.19 1014.16 1013.79 1014.22 1014.95 1015.70 1015.79 1016.00 1016.89 1017.64 1018.58
1020.83 1020.10 1019.58 1019.15 1018.75 1018.83 1018.91 1019.29 1019.03 1018.81 1018.88 1019.06 1018.76 1019.22 1019.19 1019.10 1019.06 1017.95 1018.43 1017.92 1017.59 1017.05 1017.10 1016.51 1016.54 1015.67 1015.49 1014.81 1014.69 1014.37 1014.07 1013.36 1013.10 1013.23 1013.43 1013.35 1013.52 1014.03 1014.69 1015.21 1016.05 1017.40 1018.25
1022.43 1021.68 1021.08 1020.74 1020.35 1019.83 1019.89 1020.07 1019.81 1019.78 1020.33 1020.27 1019.87 1020.06 1019.78 1019.88 1019.73 1019.07 1019.35 1018.92 1018.24 1017.82 1017.99 1017.22 1016.68 1016.01 1015.74 1015.14 1014.52 1013.99 1013.66 1013.75 1013.70 1013.24 1012.58 1012.21 1012.23 1012.64 1013.41 1014.33 1014.60 1014.97 1015.31
1023.50 1023.04 1022.50 1021.88 1021.92 1021.41 1020.98 1021.06 1020.85 1021.02 1021.03 1020.83 1020.63 1020.89 1020.58 1020.72 1020.05 1019.54 1019.52 1019.18 1018.96 1018.75 1017.99 1017.54 1016.91 1016.18 1015.88 1015.39 1014.70 1014.19 1013.62 1013.39 1013.25 1013.01 1012.62 1012.06 1011.71 1011.65 1011.80 1012.13 1012.92 1014.53 1015.66
1024.60 1024.37 1023.56 1023.54 1023.03 1022.23 1021.95 1021.95 1021.97 1022.28 1021.87 1021.63 1021.69 1021.70 1021.55 1021.43 1020.98 1020.36 1019.80 1019.51 1019.03 1018.66 1018.21 1017.56 1017.03 1016.64 1016.02 1015.49 1014.80 1014.39 1013.58 1013.00 1012.94 1012.46 1012.04 1011.63 1011.28 1011.04 1011.26 1012.33 1013.27 1014.15 1015.57
1025.55 1025.12 1024.64 1024.25 1023.58 1023.31 1023.06 1022.49 1022.87 1022.69 1022.56 1022.51 1022.49 1022.48 1022.29 1021.90 1021.28 1020.67 1020.00 1019.33 1018.94 1018.31 1017.89 1017.50 1017.10 1016.66 1015.84 1015.32 1014.78 1014.17 1013.51 1013.06 1012.74 1012.27 1011.80 1011.12 1010.66 1010.39 1010.88 1011.15 1012.03 1012.65 1014.33
1026.72 1026.03 1025.54 1025.02 1024.59 1024.26 1023.69 1023.64 1023.63 1023.36 1023.31 1023.19 1023.15 1022.92 1022.50 1022.07 1021.43 1020.97 1020.36 1019.71 1019.24 1018.71 1018.15 1017.60 1016.97 1016.50 1015.79 1014.99 1014.39 1014.04 1013.60 1012.99 1012.72 1012.37 1011.95 1011.42 1010.80 1010.59 1010.97 1011.43 1011.76 1011.80 1013.08
1027.23 1026.74 1026.28 1025.77 1025.26 1024.74 1024.32 1024.19 1024.27 1024.00 1023.62 1023.57 1023.30 1023.00 1022.80 1022.61 1022.25 1021.80 1021.35 1020.85 1020.23 1019.44 1018.72 1018.04 1017.30 1016.67 1015.83 1015.18 1014.54 1013.96 1013.41 1013.22 1013.06 1012.79 1012.42 1012.02 1011.81 1011.51 1011.58 1011.83 1012.10 1012.48 1012.91
1027.83 1027.35 1026.79 1026.33 1025.89 1025.45 1025.24 1025.19 1024.90 1024.67 1024.55 1024.49 1024.27 1024.12 1023.83 1023.42 1022.93 1022.43 1021.75 1021.18 1020.43 1019.58 1019.02 1018.53 1017.62 1016.96 1016.41 1015.71 1015.21 1014.80 1014.25 1013.85 1013.72 1013.52 1013.24 1012.96 1012.95 1012.64 1012.71 1012.81 1013.15 1013.26 1013.92
1028.62 1027.80 1027.19 1026.72 1026.55 1026.23 1025.88 1025.80 1025.74 1025.62 1025.47 1025.44 1025.40 1025.33 1025.03 1024.30 1023.67 1022.83 1022.13 1021.52 1020.79 1020.03 1019.33 1018.64 1017.92 1017.33 1016.99 1016.63 1015.89 1015.40 1015.07 1014.61 1014.23 1014.19 1014.12 1013.90 1013.58 1013.40 1013.50 1013.67 1013.90 1014.29 1015.05
1028.76 1028.23 1027.75 1027.34 1027.05 1026.96 1026.72 1026.50 1026.41 1026.52 1026.38 1026.37 1026.28 1026.05 1025.64 1024.95 1024.41 1023.71 1022.92 1022.22 1021.48 1020.81 1020.12 1019.56 1019.06 1018.53 1017.97 1017.38 1016.80 1016.27 1015.74 1015.44 1015.07 1014.70 1014.83 1014.80 1014.57 1014.44 1014.39 1014.55 1014.74 1014.96 1015.71
1028.95 1028.38 1028.00 1027.64 1027.47 1027.38 1027.50 1027.59 1027.24 1026.92 1027.02 1026.76 1026.77 1026.37 1026.15 1025.59 1024.91 1024.16 1023.57 1023.07 1022.36 1021.71 1021.47 1021.73 1021.19 1020.42 1019.99 1019.29 1018.19 1017.49 1016.80 1016.32 1016.04 1015.40 1015.15 1015.32 1015.42 1015.35 1015.39 1015.53 1015.61 1016.09 1016.71
1029.04 1028.59 1028.37 1028.21 1028.24 1028.33 1028.46 1028.71 1028.69 1028.01 1027.66 1027.59 1027.22 1027.08 1026.45 1025.95 1025.47 1025.08 1024.34 1023.93 1023.44 1022.90 1023.01 1023.06 1022.86 1022.07 1021.19 1020.56 1019.70 1018.65 1017.99 1017.11 1016.38 1016.20 1015.83 1015.89 1016.07 1016.18 1016.34 1016.56 1016.84 1017.24 1017.97
1029.26 1028.76 1028.59 1028.60 1028.70 1028.90 1029.19 1029.79 1030.05 1029.81 1029.48 1029.02 1028.30 1027.39 1026.84 1026.17 1025.83 1025.43 1024.94 1024.56 1024.65 1024.61 1025.39 1025.10 1024.47 1023.60 1022.49 1021.58 1021.05 1019.92 1018.99 1018.31 1017.64 1017.05 1016.78 1016.58 1016.53 1016.76 1017.17 1017.60 1017.95 1018.35 1018.76
1029.17 1028.77 1028.51 1028.73 1028.91 1029.14 1029.42 1030.15 1030.61 1030.67 1030.45 1030.19 1029.27 1027.88 1027.86 1026.86 1026.49 1026.37 1026.47 1026.83 1027.12 1026.89 1026.71 1026.13 1025.40 1024.61 1023.53 1022.75 1021.82 1020.87 1020.46 1019.79 1019.20 1018.05 1017.80 1017.74 1017.61 1017.68 1018.17 1018.73 1019.00 1019.53 1020.00
1028.78 1028.89 1028.89 1029.23 1029.57 1029.51 1029.81 1030.71 1030.88 1031.04 1031.01 1030.89 1030.54 1029.83 1029.38 1028.93 1028.55 1028.45 1028.10 1028.00 1028.06 1027.95 1027.53 1027.04 1026.17 1025.56 1024.43 1023.41 1022.65 1021.89 1021.38 1020.88 1020.51 1020.01 1019.24 1018.51 1018.68 1018.98 1019.22 1019.64 1020.18 1020.53 1021.49
1028.62 1028.85 1029.16 1029.67 1030.09 1030.36 1030.59 1031.22 1031.56 1031.51 1031.37 1031.35 1031.19 1030.24 1029.75 1029.96 1030.11 1029.79 1029.43 1029.18 1029.05 1028.67 1028.11 1027.55 1026.82 1025.88 1024.99 1024.29 1023.63 1022.78 1022.45 1022.06 1021.48 1021.03 1020.85 1020.40 1020.06 1020.19 1020.55 1020.73 1020.95 1021.77 1022.66
1028.72 1028.85 1029.35 1029.27 1029.81 1030.27 1030.55 1030.69 1031.09 1031.79 1031.96 1031.72 1031.26 1030.77 1030.42 1030.35 1030.38 1030.25 1030.02 1029.86 1029.67 1029.33 1028.72 1028.22 1027.27 1026.29 1025.79 1025.52 1024.84 1023.87 1023.57 1023.25 1022.49 1022.06 1021.67 1021.77 1021.51 1021.54 1021.80 1022.07 1022.52 1023.05 1023.51
1028.79 1029.26 1029.63 1029.77 1029.79 1030.08 1030.55 1030.67 1030.99 1031.22 1031.53 1031.45 1031.41 1031.18 1030.89 1030.72 1030.43 1030.21 1030.12 1030.15 1029.55 1029.09 1028.77 1028.41 1027.88 1026.98 1026.43 1025.77 1025.61 1024.83 1024.60 1024.15 1023.60 1023.04 1022.78 1022.47 1022.75 1022.81 1022.94 1023.34 1023.71 1024.07 1024.37
1028.39 1028.89 1029.37 1029.68 1029.97 1030.17 1030.39 1030.75 1030.61 1030.62 1030.74 1030.96 1030.99 1030.92 1030.86 1030.86 1030.61 1030.44 1030.27 1029.98 1029.51 1029.16 1028.73 1028.23 1028.07 1027.83 1027.17 1026.44 1025.75 1025.35 1024.70 1024.38 1024.06 1023.92 1023.59 1023.29 1023.40 1023.49 1023.76 1024.28 1024.78 1025.09 1025.31
1027.89 1028.28 1028.79 1029.17 1029.63 1029.74 1030.03 1030.09 1030.09 1030.08 1030.08 1030.15 1030.28 1030.24 1030.26 1030.29 1030.32 1030.16 1029.75 1029.42 1029.26 1029.10 1028.86 1028.59 1027.98 1027.70 1027.49 1026.99 1026.47 1025.82 1025.27 1024.31 1024.15 1024.38 1024.23 1024.13 1024.21 1024.39 1024.41 1024.63 1025.13 1025.71 1026.18
1027.33 1027.68 1028.04 1028.51 1028.90 1029.15 1029.27 1029.34 1029.32 1029.34 1029.41 1029.03 1029.11 1029.19 1029.11 1029.40 1029.54 1029.75 1029.52 1029.11 1028.83 1028.71 1028.47 1028.31 1027.96 1027.67 1027.62 1027.38 1026.62 1025.93 1025.63 1025.60 1024.94 1024.60 1024.70 1024.91 1024.97 1025.38 1025.49 1025.68 1025.86 1026.29 1026.82
Thickness
5547 5561 5575 5581 5584 5586 5587 5589 5593 5595 5597 5599 5600 5599 5597 5598 5597 5595 5595 5594 5590 5590 5587 5581 5581 5578 5576 5572 5570 5567 5563 5560 5564 5568 5569 5565 5558 5556 5552 5545 5540 5535 5529
5528 5548 5565 5569 5571 5577 5579 5580 5584 5588 5591 5594 5599 5597 5595 5592 5595 5592 5593 5591 5591 5588 5588 5584 5584 5578 5580 5573 5571 5569 5566 5565 5563 5568 5569 5564 5559 5558 5556 5548 5541 5535 5525
5499 5518 5537 5547 5548 5551 5556 5560 5565 5572 5575 5579 5584 5589 5589 5587 5587 5587 5586 5588 5587 5587 5585 5585 5589 5583 5582 5579 5577 5576 5574 5568 5565 5565 5572 5565 5559 5553 5544 5536 5530 5523 5519
5468 5487 5507 5521 5530 5535 5539 5543 5549 5554 5559 5562 5561 5569 5566 5565 5565 5564 5567 5570 5569 5571 5571 5573 5576 5576 5577 5577 5575 5574 5572 5567 5563 5562 5565 5561 5546 5539 5534 5527 5516 5513 5505
5445 5464 5481 5497 5510 5518 5523 5526 5531 5537 5543 5544 5546 5541 5551 5547 5537 5544 5550 5551 5550 5555 5554 5555 5554 5556 5553 5556 5560 5558 5558 5557 5551 5546 5552 5547 5534 5528 5526 5521 5513 5504 5493
5435 5449 5460 5477 5493 5502 5509 5511 5517 5523 5521 5520 5525 5522 5526 5528 5527 5535 5530 5530 5532 5538 5534 5538 5537 5541 5540 5543 5541 5542 5541 5543 5542 5539 5540 5539 5535 5528 5519 5512 5503 5488 5480
5425 5436 5451 5463 5476 5491 5497 5500 5506 5508 5505 5505 5509 5509 5512 5512 5512 5515 5509 5511 5517 5519 5515 5520 5521 5522 5522 5526 5529 5531 5529 5523 5520 5521 5527 5529 5524 5519 5512 5501 5497 5493 5490
5420 5428 5441 5454 5463 5476 5486 5488 5491 5491 5492 5494 5495 5494 5496 5495 5499 5501 5499 5499 5499 5498 5502 5503 5505 5507 5505 5507 5511 5513 5513 5509 5506 5506 5508 5511 5510 5507 5505 5499 5491 5476 5463
5416 5423 5433 5440 5453 5466 5473 5474 5475 5473 5478 5480 5479 5479 5479 5479 5482 5485 5488 5487 5487 5486 5486 5487 5489 5488 5488 5491 5494 5494 5497 5495 5491 5492 5491 5493 5492 5492 5489 5478 5468 5461 5444
5412 5421 5430 5436 5448 5454 5460 5465 5463 5465 5467 5468 5467 5466 5468 5470 5473 5476 5478 5480 5479 5480 5479 5477 5475 5473 5476 5475 5475 5477 5480 5478 5476 5476 5475 5477 5479 5480 5474 5469 5461 5457 5435
5413 5419 5424 5432 5439 5445 5452 5454 5455 5458 5460 5461 5461 5461 5463 5465 5467 5468 5469 5470 5469 5468 5466 5465 5463 5460 5460 5462 5462 5461 5461 5462 5459 5459 5459 5461 5463 5462 5458 5453 5448 5447 5434
5418 5423 5427 5432 5438 5444 5449 5452 5451 5454 5457 5456 5457 5458 5457 5455 5454 5454 5454 5453 5453 5454 5454 5452 5450 5447 5446 5444 5443 5443 5444 5441 5438 5438 5438 5439 5438 5439 5437 5434 5430 5426 5422
5418 5422 5426 5430 5435 5439 5442 5442 5444 5446 5446 5445 5445 5443 5441 5441 5441 5440 5441 5440 5441 5442 5440 5435 5434 5429 5424 5422 5418 5415 5414 5414 5412 5412 5412 5412 5410 5411 5408 5407 5404 5404 5399
5416 5424 5429 5433 5433 5436 5439 5439 5438 5437 5436 5434 5431 5429 5428 5430 5430 5431 5432 5432 5432 5431 5428 5425 5419 5410 5400 5393 5389 5387 5384 5383 5385 5383 5382 5382 5384 5386 5385 5383 5381 5378 5374
5422 5425 5428 5431 5432 5431 5432 5433 5431 5428 5427 5423 5421 5419 5418 5418 5417 5418 5419 5419 5419 5417 5411 5404 5394 5384 5374 5365 5359 5354 5352 5351 5353 5355 5353 5353 5356 5357 5358 5358 5357 5357 5353
5425 5428 5428 5430 5430 5429 5427 5423 5423 5421 5417 5414 5411 5410 5407 5405 5405 5406 5403 5402 5401 5399 5391 5377 5365 5353 5340 5332 5332 5328 5327 5329 5329 5334 5335 5333 5332 5334 5334 5334 5335 5334 5332
5424 5426 5425 5425 5423 5421 5418 5410 5406 5409 5408 5404 5402 5399 5398 5396 5393 5391 5391 5389 5385 5380 5368 5354 5340 5329 5318 5309 5309 5312 5312 5315 5317 5316 5318 5317 5314 5313 5312 5311 5310 5310 5307
5418 5420 5419 5417 5415 5412 5407 5397 5393 5389 5386 5387 5392 5391 5389 5388 5384 5381 5379 5374 5364 5356 5340 5331 5323 5313 5305 5300 5294 5297 5299 5300 5301 5302 5301 5303 5302 5297 5293 5292 5292 5291 5291
5415 5418 5418 5414 5411 5407 5402 5391 5385 5380 5376 5373 5376 5381 5379 5376 5372 5367 5360 5348 5336 5331 5323 5316 5310 5302 5293 5288 5287 5288 5284 5285 5283 5289 5288 5286 5287 5285 5279 5275 5276 5275 5272
5417 5413 5411 5403 5401 5402 5396 5387 5382 5375 5369 5363 5361 5363 5361 5359 5351 5346 5341 5333 5325 5317 5310 5304 5299 5290 5285 5282 5278 5278 5276 5273 5270 5270 5272 5276 5273 5270 5267 5263 5260 5258 5251
5415 5410 5406 5396 5391 5386 5383 5380 5373 5367 5362 5356 5353 5353 5355 5342 5334 5329 5324 5320 5312 5306 5300 5294 5289 5285 5279 5272 5269 5270 5264 5262 5262 5261 5259 5258 5259 5257 5254 5253 5251 5244 5237
5409 5406 5398 5398 5388 5382 5377 5372 5367 5361 5353 5350 5345 5341 5342 5331 5323 5318 5313 5307 5301 5295 5290 5285 5280 5277 5272 5262 5257 5259 5254 5250 5253 5252 5251 5247 5246 5243 5240 5238 5235 5232 5228
5399 5391 5385 5382 5379 5374 5368 5362 5358 5352 5347 5340 5334 5330 5324 5318 5314 5311 5306 5301 5297 5290 5283 5278 5272 5270 5265 5261 5250 5250 5244 5242 5243 5242 5241 5241 5236 5233 5230 5225 5222 5220 5218
5390 5384 5379 5373 5368 5365 5361 5356 5350 5346 5339 5332 5326 5322 5318 5310 5304 5300 5297 5293 5289 5284 5279 5275 5267 5261 5256 5254 5250 5241 5242 5239 5237 5234 5232 5231 5228 5226 5222 5216 5211 5209 5207
5384 5379 5373 5368 5363 5359 5353 5348 5344 5339 5334 5328 5322 5315 5311 5307 5299 5294 5291 5287 5283 5278 5271 5265 5262 5257 5250 5246 5244 5240 5235 5236 5232 5224 5222 5222 5219 5215 5215 5212 5206 5200 5195
5377 5372 5367 5360 5355 5350 5346 5343 5339 5334 5329 5326 5319 5313 5307 5301 5296 5287 5281 5279 5275 5271 5267 5262 5257 5250 5244 5239 5237 5236 5232 5224 5225 5220 5218 5215 5212 5206 5203 5200 5197 5193 5188